Weather History for Melfa, VA

Change the Weather History Date:

Saturday, March 2, 2013

  Actual Average (KWAL) Record (KWAL)
Temperature  
Mean Temperature 38 °F 42 °F  
Max Temperature 42 °F 50 °F 75 °F (1997)
Min Temperature 35 °F 33 °F 16 °F (1967)
Degree Days  
Heating Degree Days 26    
Month to date heating degree days  
Since 1 July heating degree days  
Cooling Degree Days 0    
Month to date cooling degree days  
Year to date cooling degree days  
Moisture  
Dew Point 26 °F    
Average Humidity 59    
Maximum Humidity 70    
Minimum Humidity 49    
Precipitation  
Precipitation 0.00 in 0.12 in 0.98 in (2012)
Month to date precipitation 0.24  
Year to date precipitation 6.04  
Sea Level Pressure  
Sea Level Pressure 29.84 in    
Wind  
Wind Speed 11 mph (NW)    
Max Wind Speed 18 mph    
Max Gust Speed 24 mph    
Visibility 10 miles    
Events Rain    
T = Trace of Precipitation, MM = Missing Value Source: NWS Daily Summary

Daily Weather History Graph

Daily Weather History Graph

Search for Another Location

Airport:

Trip Planner

Search our weather history database for the weather conditions in past years. The results will help you decide how hot, cold, wet, or windy it might be!

Date:

Astronomy

Mar. 02, 2013 Rise Set
Actual Time 6:32 AM EST 5:58 PM EST
Civil Twilight 6:06 AM EST 6:24 PM EST
Nautical Twilight 5:36 AM EST 6:54 PM EST
Astronomical Twilight 5:05 AM EST 7:25 PM EST
Moon 11:27 PM EST (3/2) 9:05 AM EST (3/2)
Length of Visible Light 12h 17m
Length of Day
11h 25m
Waning Gibbous, 74% of the Moon is Illuminated
Mar 2
Waning Gibbous
Mar 4
Last Quarter
Mar 11
New
Mar 19
First Quarter
Mar 27
Full

Hourly Weather History & Observations

Time (EST) Temp. Windchill Dew Point Humidity Pressure Visibility Wind Dir Wind Speed Gust Speed Precip Events Conditions
12:16 AM 42.8 °F 36.6 °F 28.4 °F 57% 29.85 in 10.0 mi NW 11.5 mph 17.3 mph N/A   Overcast
12:36 AM 42.8 °F 37.5 °F 28.4 °F 57% 29.85 in 10.0 mi NW 9.2 mph - N/A   Overcast
12:56 AM 42.8 °F 37.0 °F 28.4 °F 57% 29.85 in 10.0 mi WNW 10.4 mph - N/A   Overcast
1:17 AM 41.0 °F 35.2 °F 28.4 °F 61% 29.85 in 10.0 mi NW 9.2 mph - N/A   Overcast
1:36 AM 41.0 °F 35.8 °F 28.4 °F 61% 29.86 in 10.0 mi NW 8.1 mph - N/A   Overcast
1:56 AM 41.0 °F 35.8 °F 28.4 °F 61% 29.85 in 10.0 mi NW 8.1 mph - N/A   Overcast
2:16 AM 41.0 °F 36.4 °F 28.4 °F 61% 29.85 in 10.0 mi NW 6.9 mph - N/A   Overcast
2:37 AM 41.0 °F 38.0 °F 28.4 °F 61% 29.85 in 10.0 mi NW 4.6 mph - N/A   Light Drizzle
2:56 AM 41.0 °F 35.2 °F 30.2 °F 65% 29.84 in 10.0 mi NW 9.2 mph - N/A   Overcast
3:16 AM 41.0 °F 35.2 °F 28.4 °F 61% 29.84 in 10.0 mi NNW 9.2 mph 17.3 mph N/A   Overcast
3:36 AM 39.2 °F 33.6 °F 28.4 °F 65% 29.84 in 10.0 mi NW 8.1 mph - N/A   Overcast
3:56 AM 39.2 °F 33.0 °F 28.4 °F 65% 29.85 in 10.0 mi NW 9.2 mph - N/A   Overcast
4:16 AM 39.2 °F 32.5 °F 28.4 °F 65% 29.85 in 10.0 mi NW 10.4 mph - N/A   Overcast
4:36 AM 39.2 °F 33.6 °F 28.4 °F 65% 29.84 in 10.0 mi NW 8.1 mph - N/A   Overcast
4:56 AM 39.2 °F 32.5 °F 28.4 °F 65% 29.85 in 10.0 mi NW 10.4 mph - N/A   Overcast
5:16 AM 39.2 °F 34.2 °F 28.4 °F 65% 29.84 in 10.0 mi NW 6.9 mph - N/A   Overcast
5:36 AM 39.2 °F 33.6 °F 26.6 °F 61% 29.85 in 10.0 mi NW 8.1 mph - N/A   Overcast
5:56 AM 39.2 °F 33.0 °F 26.6 °F 61% 29.85 in 10.0 mi NW 9.2 mph - N/A   Overcast
6:16 AM 39.2 °F 33.6 °F 26.6 °F 61% 29.85 in 10.0 mi NW 8.1 mph - N/A   Overcast
6:36 AM 39.2 °F 33.6 °F 26.6 °F 61% 29.86 in 10.0 mi NW 8.1 mph - N/A   Overcast
7:16 AM 39.2 °F 32.5 °F 26.6 °F 61% 29.86 in 10.0 mi NW 10.4 mph - N/A   Overcast
7:36 AM 39.2 °F 33.0 °F 26.6 °F 61% 29.86 in 10.0 mi NNW 9.2 mph - N/A   Overcast
7:56 AM 39.2 °F 33.0 °F 26.6 °F 61% 29.86 in 10.0 mi NW 9.2 mph 17.3 mph N/A Rain Light Rain
8:16 AM 39.2 °F 33.0 °F 26.6 °F 61% 29.87 in 10.0 mi NW 9.2 mph - N/A   Overcast
8:36 AM 39.2 °F 33.6 °F 28.4 °F 65% 29.87 in 7.0 mi NW 8.1 mph - N/A   Overcast
8:56 AM 39.2 °F 32.0 °F 26.6 °F 61% 29.87 in 10.0 mi NW 11.5 mph 17.3 mph N/A   Overcast
9:16 AM 39.2 °F 30.8 °F 26.6 °F 61% 29.87 in 10.0 mi NW 15.0 mph - N/A   Overcast
9:36 AM 39.2 °F 32.5 °F 28.4 °F 65% 29.87 in 10.0 mi NW 10.4 mph - N/A   Overcast
9:56 AM 37.4 °F 28.5 °F 28.4 °F 70% 29.87 in 7.0 mi NW 15.0 mph 18.4 mph N/A   Mostly Cloudy
10:16 AM 37.4 °F 29.3 °F 28.4 °F 70% 29.87 in 7.0 mi NW 12.7 mph 17.3 mph N/A   Mostly Cloudy
10:37 AM 37.4 °F 29.3 °F 28.4 °F 70% 29.87 in 10.0 mi NW 12.7 mph - N/A   Overcast
10:56 AM 37.4 °F 30.3 °F 28.4 °F 70% 29.86 in 10.0 mi NNW 10.4 mph 16.1 mph N/A   Overcast
11:16 AM 39.2 °F 32.5 °F 28.4 °F 65% 29.85 in 10.0 mi NW 10.4 mph 18.4 mph N/A   Overcast
11:36 AM 39.2 °F 33.0 °F 26.6 °F 61% 29.85 in 10.0 mi NNW 9.2 mph 17.3 mph N/A   Overcast
11:56 AM 39.2 °F 33.0 °F 26.6 °F 61% 29.85 in 10.0 mi NNW 9.2 mph 16.1 mph N/A   Overcast
12:16 PM 39.2 °F 31.6 °F 26.6 °F 61% 29.83 in 10.0 mi NW 12.7 mph 19.6 mph N/A   Overcast
12:36 PM 39.2 °F 31.6 °F 26.6 °F 61% 29.83 in 10.0 mi WNW 12.7 mph 17.3 mph N/A   Overcast
12:56 PM 39.2 °F 33.0 °F 26.6 °F 61% 29.82 in 10.0 mi NW 9.2 mph - N/A   Overcast
1:16 PM 39.2 °F 32.5 °F 26.6 °F 61% 29.82 in 10.0 mi NW 10.4 mph 19.6 mph N/A   Mostly Cloudy
1:37 PM 42.8 °F 37.5 °F 24.8 °F 49% 29.81 in 10.0 mi NW 9.2 mph 18.4 mph N/A   Scattered Clouds
1:56 PM 42.8 °F 37.5 °F 24.8 °F 49% 29.80 in 10.0 mi NW 9.2 mph - N/A   Scattered Clouds
2:16 PM 41.0 °F 35.2 °F 24.8 °F 53% 29.81 in 10.0 mi WNW 9.2 mph - N/A   Mostly Cloudy
2:36 PM 39.2 °F 32.5 °F 23.0 °F 52% 29.81 in 10.0 mi West 10.4 mph - N/A   Overcast
2:56 PM 39.2 °F 33.0 °F 24.8 °F 56% 29.81 in 10.0 mi WNW 9.2 mph 17.3 mph N/A   Overcast
3:16 PM 39.2 °F 31.2 °F 24.8 °F 56% 29.81 in 10.0 mi West 13.8 mph 19.6 mph N/A   Overcast
3:36 PM 39.2 °F 32.0 °F 24.8 °F 56% 29.81 in 10.0 mi West 11.5 mph 17.3 mph N/A   Overcast
3:56 PM 39.2 °F 31.2 °F 24.8 °F 56% 29.81 in 10.0 mi NW 13.8 mph 19.6 mph N/A   Overcast
4:16 PM 39.2 °F 31.6 °F 23.0 °F 52% 29.82 in 10.0 mi NW 12.7 mph 23.0 mph N/A   Overcast
4:36 PM 39.2 °F 30.5 °F 23.0 °F 52% 29.82 in 10.0 mi NW 16.1 mph 23.0 mph N/A   Overcast
4:59 PM 39.2 °F 32.0 °F 24.8 °F 56% 29.82 in 10.0 mi NW 11.5 mph 20.7 mph N/A   Overcast
5:16 PM 37.4 °F 28.9 °F 23.0 °F 56% 29.82 in 10.0 mi WNW 13.8 mph 20.7 mph N/A   Overcast
5:36 PM 37.4 °F 27.5 °F 21.2 °F 52% 29.83 in 10.0 mi NW 18.4 mph 24.2 mph N/A   Overcast
5:56 PM 37.4 °F 28.2 °F 23.0 °F 56% 29.82 in 10.0 mi NW 16.1 mph 21.9 mph N/A   Overcast
6:16 PM 37.4 °F 29.3 °F 21.2 °F 52% 29.83 in 10.0 mi NW 12.7 mph 23.0 mph N/A   Overcast
6:36 PM 37.4 °F 28.9 °F 21.2 °F 52% 29.84 in 10.0 mi WNW 13.8 mph 18.4 mph N/A   Overcast
6:56 PM 37.4 °F 28.5 °F 21.2 °F 52% 29.83 in 10.0 mi WNW 15.0 mph 21.9 mph N/A   Overcast
7:36 PM 37.4 °F 29.8 °F 21.2 °F 52% 29.83 in 10.0 mi NW 11.5 mph 16.1 mph N/A   Overcast
7:57 PM 37.4 °F 30.3 °F 21.2 °F 52% 29.84 in 10.0 mi NW 10.4 mph 16.1 mph N/A   Overcast
8:36 PM 37.4 °F 28.9 °F 24.8 °F 60% 29.84 in 10.0 mi WNW 13.8 mph 19.6 mph N/A   Overcast
8:56 PM 37.4 °F 29.3 °F 24.8 °F 60% 29.84 in 10.0 mi WNW 12.7 mph 17.3 mph N/A   Overcast
9:16 PM 37.4 °F 28.2 °F 23.0 °F 56% 29.84 in 10.0 mi NW 16.1 mph - N/A   Overcast
9:36 PM 37.4 °F 28.2 °F 23.0 °F 56% 29.84 in 10.0 mi NW 16.1 mph 19.6 mph N/A   Mostly Cloudy
9:56 PM 37.4 °F 28.2 °F 23.0 °F 56% 29.84 in 10.0 mi WNW 16.1 mph 23.0 mph N/A   Mostly Cloudy
10:16 PM 37.4 °F 28.2 °F 23.0 °F 56% 29.85 in 10.0 mi NW 16.1 mph 21.9 mph N/A   Overcast
10:36 PM 37.4 °F 27.8 °F 21.2 °F 52% 29.84 in 10.0 mi NW 17.3 mph 23.0 mph N/A   Overcast
10:56 PM 37.4 °F 27.8 °F 21.2 °F 52% 29.84 in 10.0 mi WNW 17.3 mph - N/A   Overcast
11:17 PM 37.4 °F 29.3 °F 21.2 °F 52% 29.84 in 10.0 mi NW 12.7 mph 23.0 mph N/A   Overcast
11:36 PM 35.6 °F 28.0 °F 21.2 °F 56% 29.84 in 10.0 mi NW 10.4 mph 17.3 mph N/A   Overcast
11:56 PM 35.6 °F 28.0 °F 21.2 °F 56% 29.84 in 10.0 mi NW 10.4 mph 17.3 mph N/A   Mostly Cloudy